Simultaneous Nadir Overpasses (SNOs) Predictions

Prediction of SNOs between METOP-A and TERRA Satellite Orbit:

Table of predicted SNOs for the next 14.0 days since TLE Epoch: 7/10/2021
Index Date (METOP-A) Time (METOP-A) Lat,Lon (METOP-A) SZA (METOP-A ) Date (TERRA) Time (TERRA) Lat,Lon (TERRA) SZA (TERRA ) Distance(km) Time Diff (sec)
1 07/11/2021 07:14:26 -81.30, -62.98 118.18 07/11/2021 07:14:55 -81.29, -62.93 118.17 1.33 29
2 07/11/2021 08:05:06 81.29, 104.77 61.87 07/11/2021 08:04:21 81.30, 104.80 61.86 1.48 45
3 07/14/2021 02:48:47 -81.30, 3.48 117.78 07/14/2021 02:49:07 -81.29, 3.47 117.78 0.71 20
4 07/14/2021 03:39:27 81.28, 171.22 62.26 07/14/2021 03:38:33 81.30, 171.18 62.24 1.61 54
5 07/16/2021 22:23:08 -81.29, 69.93 117.34 07/16/2021 22:23:19 -81.29, 69.84 117.35 1.69 11
6 07/16/2021 23:13:48 81.28,-122.36 62.70 07/16/2021 23:12:45 81.29,-122.48 62.67 2.45 63
7 07/19/2021 17:06:54 81.37, -33.12 62.97 07/19/2021 17:08:07 81.22, -32.58 62.95 19.28 73
8 07/19/2021 17:57:29 -81.29, 136.36 116.85 07/19/2021 17:57:30 -81.30, 136.54 116.82 3.30 1
9 07/19/2021 18:48:10 81.29, -56.33 63.16 07/19/2021 18:46:57 81.28, -56.18 63.14 2.66 73
10 07/22/2021 12:41:09 81.30, 35.19 63.66 07/22/2021 12:42:14 81.29, 35.18 63.69 0.52 65



Historial Predications of SNOs between METOP-A and TERRA
